Regional Weather Roundup
Issued by NWS Charleston, WV

Home | Current Version | Previous Version | Graphics & Text | Print | Product List | Glossary On
Versions: 1 2 3 4 5 6 7 8 9 10 11 12 13 14 15 16 17 18 19 20 21 22 23 24 25 26 27 28 29 30 31 32 33 34 35 36 37 38 39 40 41 42 43 44 45 46 47 48 49 50
000
ASUS41 KRLX 312010
RWRRLX
West Virginia Regional Weather Roundup
National Weather Service Charleston WV
400 PM EDT THU JUL 31 2014

Note: "fair" indicates few or no clouds below 12,000 feet with no
significant weather and/or obstructions to visibility.

WVZ003-312100-
Northern Panhandle of West Virginia

CITY           SKY/WX    TMP DP  RH WIND       PRES   REMARKS
WHEELING       MOSUNNY   78  59  51 W8        30.10S
$$

WVZ009-312100-
Northwest West Virginia

CITY           SKY/WX    TMP DP  RH WIND       PRES   REMARKS
PARKERSBURG    MOSUNNY   80  61  52 VRB6      30.12F
$$

WVZ006-312100-
Western West Virginia

CITY           SKY/WX    TMP DP  RH WIND       PRES   REMARKS
HUNTINGTON     MOSUNNY   81  56  42 S7        30.10F
$$

WVZ015-312100-
West Central West Virginia

CITY           SKY/WX    TMP DP  RH WIND       PRES   REMARKS
CHARLESTON     MOSUNNY   80  56  43 SW7       30.11F
$$

WVZ031-312100-
North Central West Virginia

CITY           SKY/WX    TMP DP  RH WIND       PRES   REMARKS
CLARKSBURG     MOSUNNY   79  58  48 W10       30.12F
MORGANTOWN     MOSUNNY   79  59  50 VRB7      30.13S
$$

WVZ035-042-045-312100-
South Central West Virginia

CITY           SKY/WX    TMP DP  RH WIND       PRES   REMARKS
BECKLEY        MOSUNNY   77  51  40 SW5       30.18F
BLUEFIELD      CLOUDY    75  56  51 SW5       30.19F
LEWISBURG      PTSUNNY   80  45  29 CALM      30.17F
$$

WVZ047-312100-
Northern Mountains of West Virginia

CITY           SKY/WX    TMP DP  RH WIND       PRES   REMARKS
ELKINS         MOSUNNY   79  54  41 NW7       30.16S
$$

WVZ052-312100-
Eastern Panhandle of West Virginia

CITY           SKY/WX    TMP DP  RH WIND       PRES   REMARKS
MARTINSBURG    CLOUDY    82  55  39 E6        30.09F
PETERSBURG     MOSUNNY   84  49  29 W7        30.09F
$$


USA.gov is the U.S. government's official web portal to all federal, state and local government web resources and services.